Location: Derby
(52.9213°N, 1.4761°W)
Time: 19:27:34
(UTC+01:00)

Tiros 1 - Pass Details

Date: 23 May 2025
Orbit: 620 x 651 km, 48.4° (Epoch: 13 June)

Event Time Altitude Azimuth Distance (km) Brightness Sun altitude
Rises 23:03:45 0° 274° (W) 2,915 11.0 -11.9°
Reaches altitude 10° 23:06:54 10° 252° (WSW) 2,011 9.8 -12.1°
Maximum altitude 23:09:33 15° 217° (SW) 1,693 9.0 -12.3°
Enters shadow 23:11:28 12° 190° (S) 1,868 9.0 -12.5°
Drops below altitude 10° 23:12:13 10° 182° (S) 2,017 - -12.5°
Sets 23:15:23 0° 159° (SSE) 2,929 - -12.7°
